リニア彗星

217P/LINEAR (2017)

English version
Home page
Updated on March 16, 2018

---------------------------------------------------------------------

・ プロフィール

・ 写真集

・ 軌道要素

Epoch 2017 July 26.0 TT = JDT 2457960.5
T 2017 July 16.56439 TT                                 MPCW
q   1.2353828            (2000.0)            P               Q
n   0.12522631     Peri.  246.95197     +0.95785908     -0.22283321
a   3.9567534      Node   125.45408     +0.26627717     +0.92548644
e   0.6877787      Incl.   12.85629     -0.10771468     +0.30630085
P   7.87
From 3115 observations 2001 June 21-2018 Jan. 23, mean residual 0".6.
     Nongravitational parameters A1 = +0.17, A2 = +0.0030.

・ 星図

・ 光度変化

        H = 14.0  G = 0.15                       [    ,-190]  (              〜2017年 1月 7日)
        m1 =10.3 + 5 logΔ + 15.0 log r(t - 10)  [-190, 270]  (2017年 1月 7日〜2018年 4月12日)
        H = 14.0  G = 0.15                       [ 270,    ]  (2018年 4月12日〜              )

---------------------------------------------------------------------

軌道要素はM.P.E.C. 2018-B155に掲載されたものです。
星図はステラナビゲータ Ver.8 (アストロアーツ) で作成したものです。
光度グラフはComet for Windowsで作成したものです。

---------------------------------------------------------------------

Copyright(C) Seiichi Yoshida (comet@aerith.net). All rights reserved.